Burlington, WA
on Wednesday, January 2, 2013

Wednesday
Previous Day Next Day
Daily Summary
 ActualAverage (KBLI)Record (KBLI)
Temperature
Mean Temperature °F 38°F  
Max Temperature 44°F 44°F 59°F (2012)
Min Temperature 32°F 32°F 4°F (1950)
Degree Days
Heating Degree Days 27 27  
Month to date heating degree days 54  
Cooling Degree Days 0 0  
Month to date cooling degree days 0  
Year to date cooling degree days 0  
Moisture
Dew Point 34°F   
Average Humidity 91    
Maximum Humidity 100    
Minimum Humidity 66    
Precipitation
Precipitation 0.00 in 0.13 in 1.43 in (1953)
Month to date precipitation 0.27  
Year to date precipitation 0.27  
Wind
Wind Speed 5 mph   
Max Wind Speed 12 mph   
Max Gust Speed mph   
Visibility 9 miles   
Events     

Key: T is trace of precipitation, MM is missing value
Source: NWS Daily Summary
Time(PST)TemperatureDew PointHumidity Pressure Visibility Wind DirectionWind SpeedGust SpeedPrecipitationEvents Conditions
12:15 AM 35.6°F 33.8°F 93% 30.38 in 10.0 miles NNE 3.5 mph - 0.00 in   Clear
12:35 AM 37.4°F 33.8°F 87% 30.37 in 10.0 miles NE 9.2 mph - 0.00 in   Clear
12:55 AM 35.6°F 33.8°F 93% 30.37 in 10.0 miles NE 9.2 mph - 0.00 in   Clear
1:15 AM 35.6°F 33.8°F 93% 30.36 in 10.0 miles ENE 9.2 mph - 0.00 in   Clear
1:35 AM 32.0°F 32.0°F 100% 30.36 in 10.0 miles ENE 5.8 mph - 0.00 in   Clear
2:15 AM 32.0°F 32.0°F 100% 30.36 in 10.0 miles North 3.5 mph - 0.00 in   Clear
2:35 AM 35.6°F 33.8°F 93% 30.35 in 10.0 miles NE 8.1 mph - 0.00 in   Clear
2:55 AM 33.8°F 33.8°F 100% 30.34 in 10.0 miles NE 6.9 mph - 0.00 in   Clear
3:15 AM 35.6°F 32.0°F 87% 30.34 in 10.0 miles NE 11.5 mph - 0.00 in   Clear
3:35 AM 37.4°F 32.0°F 81% 30.34 in 10.0 miles NE 11.5 mph - 0.00 in   Clear
3:55 AM 35.6°F 33.8°F 93% 30.34 in 10.0 miles North 9.2 mph - 0.00 in   Clear
4:15 AM 33.8°F 33.8°F 100% 30.33 in 10.0 miles NNE 5.8 mph - 0.00 in   Clear
4:35 AM 32.0°F 32.0°F 100% 30.33 in 10.0 miles NW 4.6 mph - 0.00 in   Clear
4:55 AM 32.0°F 32.0°F 100% 30.32 in 10.0 miles Calm Calm - 0.00 in   Clear
5:15 AM 33.8°F 33.8°F 100% 30.32 in 8.0 miles Calm Calm - 0.00 in   Clear
5:35 AM 32.0°F 32.0°F 100% 30.32 in 7.0 miles NW 3.5 mph - 0.00 in   Clear
5:55 AM 32.0°F 32.0°F 100% 30.31 in 6.0 miles NNW 3.5 mph - 0.00 in   Clear
6:15 AM 32.0°F 32.0°F 100% 30.31 in 9.0 miles North 4.6 mph - 0.00 in   Clear
6:35 AM 32.0°F 32.0°F 100% 30.31 in 10.0 miles Calm Calm - 0.00 in   Clear
7:15 AM 33.8°F 32.0°F 93% 30.31 in 10.0 miles North 4.6 mph - 0.00 in   Clear
7:35 AM 33.8°F 32.0°F 93% 30.31 in 10.0 miles NNE 3.5 mph - 0.00 in   Clear
7:55 AM 35.6°F 32.0°F 87% 30.31 in 10.0 miles NNE 4.6 mph - 0.00 in   Clear
8:15 AM 33.8°F 32.0°F 93% 30.32 in 9.0 miles NE 3.5 mph - 0.00 in   Clear
8:35 AM 35.6°F 32.0°F 87% 30.31 in 8.0 miles NNE 6.9 mph - 0.00 in   Clear
8:55 AM 35.6°F 32.0°F 87% 30.32 in 9.0 miles NNE 4.6 mph - 0.00 in   Clear
9:15 AM 35.6°F 33.8°F 93% 30.32 in 8.0 miles North 3.5 mph - 0.00 in   Clear
9:35 AM 37.4°F 33.8°F 87% 30.32 in 8.0 miles NE 4.6 mph - 0.00 in   Clear
9:55 AM 35.6°F 33.8°F 93% 30.32 in 8.0 miles ENE 4.6 mph - 0.00 in   Clear
10:15 AM 35.6°F 35.6°F 100% 30.33 in 8.0 miles NE 3.5 mph - 0.00 in   Clear
10:35 AM 37.4°F 35.6°F 93% 30.32 in 8.0 miles NNE 4.6 mph - 0.00 in   Clear
10:55 AM 39.2°F 33.8°F 81% 30.32 in 9.0 miles ENE 6.9 mph - 0.00 in   Clear
11:15 AM 39.2°F 33.8°F 81% 30.32 in 7.0 miles ENE 5.8 mph - 0.00 in   Clear
11:35 AM 39.2°F 35.6°F 87% 30.31 in 7.0 miles East 5.8 mph - 0.00 in   Clear
12:15 PM 42.8°F 35.6°F 76% 30.29 in 8.0 miles SSW 4.6 mph - 0.00 in   Clear
12:35 PM 42.8°F 35.6°F 76% 30.29 in 8.0 miles South 3.5 mph - 0.00 in   Clear
12:55 PM 42.8°F 35.6°F 76% 30.28 in 8.0 miles SSW 5.8 mph - 0.00 in   Clear
1:15 PM 42.8°F 35.6°F 76% 30.27 in 8.0 miles Calm Calm - 0.00 in   Clear
1:35 PM 44.6°F 33.8°F 66% 30.27 in 8.0 miles Calm Calm - 0.00 in   Clear
1:55 PM 44.6°F 33.8°F 66% 30.27 in 8.0 miles Calm Calm - 0.00 in   Clear
2:15 PM 44.6°F 33.8°F 66% 30.27 in 7.0 miles Calm Calm - 0.00 in   Clear
2:35 PM 44.6°F 35.6°F 71% 30.26 in 4.0 miles ENE 4.6 mph - 0.00 in   Clear
3:35 PM 39.2°F 35.6°F 87% 30.27 in 7.0 miles NW 3.5 mph - 0.00 in   Clear
3:55 PM 39.2°F 35.6°F 87% 30.27 in 8.0 miles NNW 3.5 mph - 0.00 in   Clear
4:15 PM 39.2°F 35.6°F 87% 30.27 in 8.0 miles North 8.1 mph - 0.00 in   Clear
4:35 PM 39.2°F 35.6°F 87% 30.27 in 9.0 miles North 4.6 mph - 0.00 in   Clear
4:55 PM 37.4°F 33.8°F 87% 30.26 in 9.0 miles NNW 3.5 mph - 0.00 in   Clear
5:15 PM 37.4°F 33.8°F 87% 30.26 in 10.0 miles Calm Calm - 0.00 in   Clear
5:35 PM 37.4°F 33.8°F 87% 30.26 in 10.0 miles Calm Calm - 0.00 in   Clear
5:55 PM 37.4°F 33.8°F 87% 30.26 in 10.0 miles SE 3.5 mph - 0.00 in   Clear
6:15 PM 35.6°F 35.6°F 100% 30.25 in 10.0 miles NNE 3.5 mph - 0.00 in   Clear
6:35 PM 35.6°F 33.8°F 93% 30.25 in 9.0 miles Calm Calm - 0.00 in   Clear
6:55 PM 35.6°F 35.6°F 100% 30.25 in 10.0 miles Calm Calm - 0.00 in   Clear
7:15 PM 35.6°F 35.6°F 100% 30.24 in 9.0 miles NE 3.5 mph - 0.00 in   Clear
7:35 PM 35.6°F 33.8°F 93% 30.24 in 10.0 miles Calm Calm - 0.00 in   Clear
7:55 PM 35.6°F 35.6°F 100% 30.24 in 10.0 miles Calm Calm - 0.00 in   Clear
8:15 PM 33.8°F 33.8°F 100% 30.23 in 9.0 miles Calm Calm - 0.00 in   Clear
8:35 PM 33.8°F 33.8°F 100% 30.23 in 9.0 miles NE 3.5 mph - 0.00 in   Clear
8:55 PM 33.8°F 33.8°F 100% 30.23 in 9.0 miles Calm Calm - 0.00 in   Clear
9:15 PM 33.8°F 33.8°F 100% 30.23 in 10.0 miles Calm Calm - 0.00 in   Clear
9:35 PM 32.0°F 32.0°F 100% 30.23 in 9.0 miles NE 3.5 mph - 0.00 in   Clear
9:55 PM 33.8°F 33.8°F 100% 30.23 in 9.0 miles Calm Calm - 0.00 in   Clear
10:15 PM 32.0°F 32.0°F 100% 30.23 in 9.0 miles Calm Calm - 0.00 in   Clear
10:35 PM 32.0°F 32.0°F 100% 30.23 in 10.0 miles Calm Calm - 0.00 in   Clear
10:55 PM 32.0°F 32.0°F 100% 30.22 in 10.0 miles NW 3.5 mph - 0.00 in   Clear
11:15 PM 33.8°F 33.8°F 100% 30.22 in 10.0 miles NNE 4.6 mph - 0.00 in   Clear
11:35 PM 33.8°F 33.8°F 100% 30.22 in 10.0 miles NNW 3.5 mph - 0.00 in   Clear
11:55 PM 32.0°F 32.0°F 100% 30.22 in 9.0 miles SW 3.5 mph - 0.00 in   Clear
Moon Phase
Jan. 02 Jan. 04 Jan. 11 Jan. 18 Jan. 26
Sunrise:08:01 AM (PST) Moon Rise:10:34 PM (PST)
Sunset:04:26 PM (PST) Moon Set:10:18 AM (PST)

Copyright © 2014 The Weather Underground, Inc.